Tracking 27112 objects as of 27-Mar-2023
HD Live streaming from Space Station
objects crossing your sky now

STARLINK-1659

Track STARLINK-1659 now!
10-day predictions
STARLINK-1659 is classified as:


NORAD ID: 46534
Int'l Code: 2020-070C
Perigee: 553.4 km
Apogee: 555.2 km
Inclination: 53.1 °
Period: 95.6 minutes
Semi major axis: 6925 km
RCS: Unknown
Launch date: October 6, 2020
Source: United States (US)
Launch site: AIR FORCE EASTERN TEST RANGE (AFETR)
Your satellite tracking list
Your tracking list is empty




NASA's NSSDC Master Catalog

Two Line Element Set (TLE):
1 46534U 20070C   23085.94204485  .00030496  00000-0  20568-2 0  9990
2 46534  53.0546 339.3065 0001275 109.8159 250.2967 15.06410333136911
Source of the keplerian elements: AFSPC